Onweer radar Meer informatie blitzortung!


Regen radar Meer informatie rain snow radar


Bezoek onze andere website:

Template documentation
and downloads

And another site



15 daagse weersverwachting Renens (CH)

  • Overzicht
  • Per uur
  • 15 dagen
  • Extra
  • Vergelijk
  • Kaarten
  • Dagkaart
  • Meer »
  • Info
  • Statistieken
  • Directe link
    Temp 6h Neerslag Wind  
 06:17     21:04    Daglengte: 14:47 Vandaag
02:00
16°
0.7 mm
1
08:00
16°
12.5 mm
2
14:00
17°
9.9 mm
1
20:00
18°
 
1
 06:18     21:03    Daglengte: 14:45 Morgen
02:00
16°
4.0 mm
2
08:00
16°
 
1
14:00
19°
 
2
20:00
20°
 
1
 06:19     21:01    Daglengte: 14:42 Dinsdag 03 Aug
02:00
17°
6.3 mm
2
08:00
17°
6.3 mm
2
14:00
20°
6.4 mm
5
20:00
19°
20.0 mm
4
Locatie info
Region: Ouest Lausannois
Latitude: 46.5391°N
Longitude: 6.5794°E
441 masl
Postcode: 1020
Temp/Neerslag /Baro Onweer/Dauwpunt
    Temp Baro 1h Neerslag Dauwpunt Wind UV Bewolking  
 06:17     21:04    Daglengte: 14:47 Vandaag
01:00
17°
1011.8 hPa
49%
12.7°
2
Windvlaag: 2.5 m/s
86%
02:00
16°
1011.5 hPa 0.7 mm
79%
12.8°
1
Windvlaag: 0.4 m/s
86%
03:00
16°
1011.4 hPa 1.0 mm
82%
12.8°
1
Windvlaag: 0.4 m/s
85%
04:00
16°
1011.5 hPa 1.5 mm
82%
12.8°
2
Windvlaag: 0.7 m/s
86%
05:00
16°
1011.3 hPa 2.1 mm
82%
12.9°
2
Windvlaag: 1.6 m/s
86%
06:00
16°
1011.6 hPa 2.8 mm
82%
12.9°
2
Windvlaag: 2.1 m/s
86%
07:00
16°
1011.8 hPa 2.8 mm
82%
12.9°
2
Windvlaag: 2 m/s
86%
08:00
16°
1012.3 hPa 2.3 mm
82%
12.8°
2
Windvlaag: 2.2 m/s
84%
09:00
16°
1012.6 hPa 2.2 mm
82%
12.5°
2
Windvlaag: 2.3 m/s
77%
10:00
16°
1013.0 hPa 1.9 mm
82%
12.6°
2
Windvlaag: 2.6 m/s
78%
11:00
16°
1013.1 hPa 1.5 mm
82%
12.2°
2
Windvlaag: 2.4 m/s
67%
12:00
17°
1013.1 hPa 1.5 mm
82%
12.0°
1
Windvlaag: 2.9 m/s
66% warningclass
13:00
17°
1012.9 hPa 1.2 mm
81%
11.8°
1
Windvlaag: 3.1 m/s
63% warningclass
14:00
17°
1012.8 hPa 1.6 mm
81%
11.3°
1
Windvlaag: 3.9 m/s
61%
15:00
18°
1013.0 hPa
82%
10.6°
1
Windvlaag: 2.8 m/s
66%
16:00
18°
1012.9 hPa
80%
11.0°
1
Windvlaag: 1.3 m/s
58%
17:00
18°
1012.9 hPa
76%
11.9°
2
Windvlaag: 2.2 m/s
52%
18:00
19°
1012.9 hPa
77%
12.5°
2
Windvlaag: 1.4 m/s
20%
19:00
19°
1013.2 hPa
79%
13.4°
2
Windvlaag: 1.9 m/s
13%
20:00
18°
1013.6 hPa
76%
13.9°
1
Windvlaag: 1.6 m/s
13%
21:00
18°
1013.7 hPa
71%
14.1°
1
Windvlaag: 1.5 m/s
12%
22:00
17°
1014.4 hPa
59%
13.8°
1
Windvlaag: -0.2 m/s
13%
23:00
17°
1014.8 hPa
61%
13.4°
2
Windvlaag: -1.6 m/s
10%
 06:18     21:03    Daglengte: 14:45 Morgen
00:00
16°
1014.9 hPa 4.0 mm
65%
12.6°
2
Windvlaag: -3.2 m/s
7%
01:00
16°
1014.9 hPa
64%
12.5°
2
Windvlaag: -3.6 m/s
11%
02:00
16°
1015.0 hPa
61%
12.4°
2
Windvlaag: -2.3 m/s
42%
03:00
15°
1015.1 hPa
63%
12.1°
2
Windvlaag: -1.5 m/s
51%
04:00
15°
1015.2 hPa
61%
12.2°
1
Windvlaag: -1.1 m/s
39%
05:00
15°
1015.3 hPa
58%
12.3°
1
Windvlaag: -1.1 m/s
12%
06:00
15°
1015.5 hPa
56%
12.3°
1
Windvlaag: -1.1 m/s
16%
07:00
15°
1015.9 hPa
22%
12.7°
1
Windvlaag: -1.1 m/s
16%
08:00
16°
1016.0 hPa
55%
13.1°
1
Windvlaag: -0.7 m/s
16%
09:00
16°
1016.3 hPa
21%
13.5°
1
Windvlaag: 0.2 m/s
11%
10:00
17°
1016.4 hPa
18%
13.9°
2
Windvlaag: 0.7 m/s
10%
11:00
17°
1016.4 hPa
17%
13.8°
2
Windvlaag: 3.3 m/s
8%
12:00
18°
1016.3 hPa
18%
13.3°
2
Windvlaag: 3.6 m/s
7%
13:00
19°
1016.1 hPa
19%
12.7°
2
Windvlaag: 3.1 m/s
7%
14:00
19°
1015.8 hPa
21%
12.6°
2
Windvlaag: 2.6 m/s
6%
15:00
20°
1015.8 hPa
28%
12.5°
2
Windvlaag: 2.3 m/s
4%
16:00
20°
1015.5 hPa
66%
13.3°
2
Windvlaag: 2.7 m/s
6%
17:00
20°
1015.6 hPa
70%
13.6°
2
Windvlaag: 2.9 m/s
5%
18:00
20°
1015.3 hPa
30%
12.8°
2
Windvlaag: 0.6 m/s
8%
19:00
20°
1015.2 hPa
16%
11.7°
2
Windvlaag: 1.9 m/s
5%
20:00
20°
1015.2 hPa
16%
11.3°
1
Windvlaag: 2.1 m/s
20%
21:00
19°
1015.5 hPa
14%
11.2°
2
Windvlaag: 0.2 m/s
19%
22:00
19°
1016.1 hPa
14%
11.4°
2
Windvlaag: -1.1 m/s
27%
23:00
18°
1015.9 hPa
21%
12.1°
2
Windvlaag: -1.3 m/s
9%
 06:19     21:01    Daglengte: 14:42 Dinsdag 03 Aug
00:00
18°
1015.9 hPa 6.3 mm
21%
11.5°
2
Windvlaag: -1.4 m/s
9%
01:00
17°
1015.8 hPa
21%
11.5°
2
Windvlaag: -1.3 m/s
25%
02:00
17°
1015.4 hPa
21%
11.1°
2
Windvlaag: -1 m/s
50%
03:00
17°
1015.0 hPa
21%
11.1°
2
Windvlaag: -0.6 m/s
46%
04:00
17°
1015.0 hPa
21%
10.7°
2
Windvlaag: -0.4 m/s
54%
05:00
17°
1014.8 hPa 6.3 mm
21%
10.7°
2
Windvlaag: 0 m/s
70%
06:00
16°
1014.9 hPa
21%
10.2°
2
Windvlaag: 0.4 m/s
77%
07:00
17°
1014.9 hPa
21%
10.4°
2
Windvlaag: 0.8 m/s
72%
08:00
17°
1015.1 hPa
21%
9.9°
2
Windvlaag: 0.7 m/s
74%
09:00
16°
1014.9 hPa
21%
9.5°
3
Windvlaag: 11.2 m/s
66%
10:00
18°
1014.8 hPa
21%
10.7°
2
Windvlaag: 11.4 m/s
78%
11:00
19°
1015.0 hPa
23%
12.2°
3
Windvlaag: 12.9 m/s
78%
12:00
20°
1014.2 hPa
32%
15.3°
2
Windvlaag: 11.1 m/s
65%
13:00
20°
1013.7 hPa
39%
15.4°
3
Windvlaag: 11.2 m/s
73%
14:00
20°
1013.7 hPa 6.4 mm
100%
15.1°
5
Windvlaag: 10.6 m/s
78%
15:00
19°
1014.1 hPa 6.7 mm
100%
14.0°
5
Windvlaag: 8.3 m/s
89%
16:00
19°
1014.0 hPa 6.8 mm
100%
13.3°
5
Windvlaag: 8.2 m/s
95%
17:00
19°
1013.9 hPa 6.5 mm
100%
13.8°
5
Windvlaag: 7.5 m/s
17%
18:00
19°
1013.6 hPa
100%
13.5°
4
Windvlaag: 6.3 m/s
19%
19:00
20°
1013.3 hPa
96%
14.2°
4
Windvlaag: 6 m/s
18%
20:00
19°
1013.7 hPa
46%
14.2°
4
Windvlaag: 4.8 m/s
19%
21:00
18°
1014.0 hPa
28%
13.8°
3
Windvlaag: 3.5 m/s
48%
22:00
18°
1014.5 hPa
24%
12.8°
1
Windvlaag: 2.5 m/s
67%
23:00
17°
1014.6 hPa
41%
12.5°
1
Windvlaag: 3.4 m/s
80%
 06:20     21:00    Daglengte: 14:40 Woensdag 04 Aug
00:00
17°
1014.6 hPa
94%
11.6°
1
Windvlaag: 3.7 m/s
85%
Temp/Neerslag /Baro Onweer/Dauwpunt
    Temp Baro Neerslag Dauwpunt Wind Bewolking  
 06:17     21:04    Daglengte: 14:47 Vandaag
02:00
16°
1011.5 hPa 0.7 mm 12.8°
1
86%
05:00
16°
1011.3 hPa 4.5 mm 12.9°
2
86%
08:00
16°
1012.3 hPa 8.0 mm 12.8°
2
84%
11:00
16°
1013.1 hPa 5.6 mm 12.2°
2
67%
14:00
17°
1012.8 hPa 4.3 mm 11.3°
1
61%
17:00
18°
1012.9 hPa   11.9°
2
52%
20:00
18°
1013.6 hPa   13.9°
1
13%
23:00
17°
1014.8 hPa   13.4°
2
10%
 06:18     21:03    Daglengte: 14:45 Morgen
02:00
16°
1015.0 hPa 4.0 mm 12.4°
2
42%
05:00
15°
1015.3 hPa   12.3°
1
12%
08:00
16°
1016.0 hPa   13.1°
1
16%
11:00
17°
1016.4 hPa   13.8°
2
8%
14:00
19°
1015.8 hPa   12.6°
2
6%
17:00
20°
1015.6 hPa   13.6°
2
5%
20:00
20°
1015.2 hPa   11.3°
1
20%
23:00
18°
1015.9 hPa   12.1°
2
9%
 06:19     21:01    Daglengte: 14:42 Dinsdag 03 Aug
02:00
17°
1015.4 hPa 6.3 mm 11.1°
2
50%
05:00
17°
1014.8 hPa 6.3 mm 10.7°
2
70%
08:00
17°
1015.1 hPa   9.9°
2
74%
11:00
19°
1015.0 hPa   12.2°
3
78%
14:00
20°
1013.7 hPa 6.4 mm 15.1°
5
78%
17:00
19°
1013.9 hPa 20.0 mm 13.8°
5
17%
20:00
19°
1013.7 hPa   14.2°
4
19%
23:00
17°
1014.6 hPa   12.5°
1
80%
 06:20     21:00    Daglengte: 14:40 Woensdag 04 Aug
02:00
16°
1014.3 hPa 19.1 mm 12.0°
1
89%
05:00
15°
1013.1 hPa 39.8 mm 14.3°
1
1%
08:00
16°
1013.7 hPa 46.3 mm 14.5°
3
1%
11:00
16°
1015.2 hPa 51.5 mm 14.9°
5
1%
14:00
17°
1015.9 hPa 52.9 mm 12.2°
2
1%
17:00
16°
1016.9 hPa 54.0 mm 12.6°
3
1%
20:00
16°
1017.7 hPa 54.6 mm 12.5°
1
1%
23:00
13°
1019.0 hPa 55.5 mm 10.5°
2
0%
 06:21     20:58    Daglengte: 14:37 Donderdag 05 Aug
02:00
12°
1018.6 hPa 55.6 mm 9.8°
1
0%
05:00
12°
1017.7 hPa 55.6 mm 9.4°
1
0%
08:00
13°
1016.8 hPa 55.6 mm 10.4°
1
0%
11:00
15°
1015.1 hPa 55.6 mm 11.4°
0
1%
14:00
18°
1013.8 hPa 55.6 mm 11.4°
1
1%
17:00
18°
1012.7 hPa 55.8 mm 12.1°
5
1%
20:00
17°
1012.2 hPa 56.6 mm 11.8°
4
1%
23:00
15°
1012.5 hPa 56.9 mm 11.5°
4
1%
 06:23     20:57    Daglengte: 14:34 Vrijdag 06 Aug
02:00
15°
1012.0 hPa 57.5 mm 12.3°
4
1%
05:00
14°
1012.1 hPa 58.5 mm 12.3°
5
0%
08:00
15°
1012.8 hPa 58.9 mm 12.3°
5
0%
11:00
18°
1013.1 hPa 59.2 mm 11.4°
7
0%
14:00
20°
1012.8 hPa 59.3 mm 11.1°
8
0%
17:00
21°
1012.6 hPa 59.3 mm 11.4°
7
0%
20:00
18°
1013.6 hPa 59.3 mm 11.4°
5
0%
23:00
14°
1015.3 hPa 59.3 mm 9.8°
2
0%
 06:24     20:56    Daglengte: 14:32 Zaterdag 07 Aug
02:00
13°
1015.1 hPa 59.3 mm 9.1°
0
0%
05:00
12°
1014.5 hPa 59.3 mm 9.2°
1
0%
08:00
14°
1013.9 hPa 59.3 mm 10.7°
1
0%
11:00
18°
1012.8 hPa 59.3 mm 12.4°
0
1%
14:00
20°
1011.9 hPa 59.3 mm 13.5°
1
1%
17:00
22°
1011.1 hPa 59.3 mm 14.8°
1
0%
20:00
21°
1010.6 hPa 59.3 mm 15.0°
1
0%
23:00
18°
1011.9 hPa   12.8°
1
0%
 06:25     20:54    Daglengte: 14:29 Zondag 08 Aug
02:00
17°
1012.5 hPa 118.6 mm 13.4°
1
0%
08:00
18°
1014.8 hPa 118.7 mm 14.9°
3
0%
14:00
24°
1015.8 hPa 119.5 mm 16.7°
4
0%
20:00
17°
1020.4 hPa 123.3 mm 15.4°
2
1%
 06:26     20:52    Daglengte: 14:26 Maandag 09 Aug
02:00
17°
1023.1 hPa 129.3 mm 13.3°
1
1%
08:00
15°
1024.5 hPa 129.7 mm 11.7°
2
1%
14:00
21°
1023.9 hPa 129.8 mm 12.8°
1
0%
20:00
20°
1023.8 hPa 129.8 mm 12.8°
2
0%
 06:28     20:51    Daglengte: 14:23 Dinsdag 10 Aug
02:00
14°
1026.1 hPa 129.8 mm 10.9°
3
0%
08:00
14°
1025.5 hPa 129.8 mm 11.3°
2
0%
14:00
22°
1023.3 hPa 129.8 mm 12.6°
3
0%
20:00
20°
1020.7 hPa 0.5 mm 15.7°
1
38%
 06:29     20:49    Daglengte: 14:20 Woensdag 11 Aug
02:00
14°
1021.9 hPa 0.5 mm 12.7°
1
24%
08:00
15°
1021.2 hPa 1.8 mm 13.1°
1
29%
14:00
23°
1019.5 hPa 0.7 mm 14.7°
2
40%
20:00
19°
1019.6 hPa 1.2 mm 15.9°
1
42%
 06:30     20:48    Daglengte: 14:18 Donderdag 12 Aug
02:00
14°
1020.8 hPa 0.8 mm 12.9°
1
40%
08:00
15°
1020.6 hPa 0.7 mm 13.1°
1
42%
14:00
24°
1019.0 hPa 0.8 mm 15.5°
2
35%
20:00
20°
1019.1 hPa 1.9 mm 16.1°
1
28%
 06:31     20:46    Daglengte: 14:15 Vrijdag 13 Aug
02:00
14°
1020.7 hPa 1.0 mm 13.0°
1
23%
08:00
15°
1020.9 hPa 0.7 mm 13.3°
1
29%
14:00
24°
1019.5 hPa 0.4 mm 15.0°
2
37%
20:00
20°
1019.6 hPa 0.6 mm 16.3°
1
26%
 06:33     20:44    Daglengte: 14:11 Zaterdag 14 Aug
02:00
14°
1021.1 hPa 0.2 mm 13.5°
1
25%
08:00
15°
1020.7 hPa 0.3 mm 13.4°
1
35%
14:00
25°
1018.6 hPa 0.3 mm 15.2°
2
33%
20:00
20°
1018.5 hPa 0.6 mm 16.4°
1
31%
 06:34     20:43    Daglengte: 14:09 Zondag 15 Aug
02:00
15°
1019.8 hPa 0.6 mm 13.6°
1
25%
08:00
15°
1019.3 hPa 0.3 mm 13.6°
1
35%
14:00
24°
1017.7 hPa 0.4 mm 15.5°
2
32%
20:00
20°
1017.9 hPa 0.4 mm 16.3°
1
30%
  CAPE Lifted Index Hail Supercell Tornado SRH 3km CL BTM PRES CL TOP PRES Swiss DWD icon SMHI TS
 06:17     21:04    Daglengte: 14:47 Vandaag
01:00 19 J/kg 2.3 K 0 % 0 % 0 % 0 m²/s² 0 0 2.3 80
02:00 20 J/kg 1.7 K 0 % 0 % 0 % 0 m²/s² 0 0 1.73 3
03:00 39 J/kg 1.7 K 0 % 0 % 0 % 0 m²/s² 0 0 1.7 80
04:00 43 J/kg 1.4 K 0 % 0 % 0 % 0 m²/s² 0 0 1.67 61
05:00 56 J/kg 1.1 K 0 % 0 % 0 % 0 m²/s² 0 0 1.58 61
06:00 61 J/kg 1.0 K 0 % 0 % 0 % 0 m²/s² 0 0 1.03 63
07:00 108 J/kg 0.4 K 0 % 0 % 0 % 0 m²/s² 0 0 0.49 63
08:00 119 J/kg 0.1 K 0 % 0 % 0 % 0 m²/s² 0 0 0.22 63
09:00 141 J/kg -0.3 K 0 % 0 % 0 % 0 m²/s² 0 0 -0.21 61
10:00 230 J/kg -1.1 K 0 % 0 % 0 % 0 m²/s² 0 0 -0.98 61
11:00 401 J/kg -1.8 K 0 % 0 % 0 % 0 m²/s² 0 0 -1.59 61
12:00 569 J/kg -2.3 K 0 % 0 % 0 % 0 m²/s² 0 0 -2.09 80
13:00 631 J/kg -2.4 K 0 % 0 % 0 % 0 m²/s² 0 0 -2.22 3
14:00 675 J/kg -2.7 K 0 % 0 % 0 % 0 m²/s² 0 0 -1.95 80
15:00 644 J/kg -2.5 K 0 % 0 % 0 % 0 m²/s² 0 0 -1.21 80
16:00 629 J/kg -2.6 K 0 % 0 % 0 % 0 m²/s² 0 0 -1.49 3
17:00 688 J/kg -2.5 K 0 % 0 % 0 % 0 m²/s² 0 0 -1.99 80
18:00 699 J/kg -3.0 K 0 % 0 % 0 % 0 m²/s² 0 0 -1.56 2
19:00 675 J/kg -2.8 K 0 % 0 % 0 % 0 m²/s² 0 0 -1.96 80
20:00 320 J/kg -1.7 K 0 % 0 % 0 % 0 m²/s² 0 0 -1.7 80
21:00 262 J/kg -1.0 K 0 % 0 % 0 % 0 m²/s² 0 0 -0.91 2
22:00 92 J/kg -0.1 K 0 % 0 % 0 % 0 m²/s² 0 0 0.59 2
23:00 61 J/kg 0.2 K 0 % 0 % 0 % 0 m²/s² 0 0 1.31 1
 06:18     21:03    Daglengte: 14:45 Morgen
00:00 64 J/kg 0.3 K 0 % 0 % 0 % 0 m²/s² 0 0 1.23 80
01:00 78 J/kg 0.0 K 0 % 0 % 0 % 0 m²/s² 0 0 0.63 80
02:00 82 J/kg 0.2 K 0 % 0 % 0 % 0 m²/s² 0 0 0.8 45
03:00 49 J/kg 1.0 K 0 % 0 % 0 % 0 m²/s² 0 0 1.69 45
04:00 28 J/kg 1.7 K 0 % 0 % 0 % 0 m²/s² 0 0 2.66 45
05:00 15 J/kg 1.7 K 0 % 0 % 0 % 0 m²/s² 0 0 3.23 45
06:00 42 J/kg 1.6 K 0 % 0 % 0 % 0 m²/s² 0 0 3.49 45
07:00 64 J/kg 1.6 K 0 % 0 % 0 % 0 m²/s² 0 0 3.76 45
08:00 154 J/kg 0.9 K 0 % 0 % 0 % 0 m²/s² 0 0 3.06 45
09:00 231 J/kg 0.4 K 0 % 0 % 0 % 0 m²/s² 0 0 2.56 2
10:00 260 J/kg 0.1 K 0 % 0 % 0 % 0 m²/s² 0 0 2.47 2
11:00 278 J/kg -0.3 K 0 % 0 % 0 % 0 m²/s² 0 0 1.98 1
12:00 274 J/kg -0.3 K 0 % 0 % 0 % 0 m²/s² 0 0 1.8 1
13:00 307 J/kg -0.6 K 0 % 0 % 0 % 0 m²/s² 0 0 1.62 1
14:00 335 J/kg -0.8 K 0 % 0 % 0 % 0 m²/s² 0 0 1.45 0
15:00 412 J/kg -1.3 K 0 % 0 % 0 % 0 m²/s² 0 0 1.07 0
16:00 429 J/kg -1.4 K 0 % 0 % 0 % 0 m²/s² 0 0 1.06 2
17:00 440 J/kg -1.5 K 0 % 0 % 0 % 0 m²/s² 0 0 1.11 1
18:00 421 J/kg -1.4 K 0 % 0 % 0 % 0 m²/s² 0 0 1.3 1
19:00 413 J/kg -1.5 K 0 % 0 % 0 % 0 m²/s² 0 0 1.05 1
20:00 365 J/kg -1.3 K 0 % 0 % 0 % 0 m²/s² 0 0 1.31 3
21:00 321 J/kg -1.0 K 0 % 0 % 0 % 0 m²/s² 0 0 1.31 2
22:00 332 J/kg -1.0 K 0 % 0 % 0 % 0 m²/s² 0 0 1.25 3
23:00 251 J/kg -0.8 K 0 % 0 % 0 % 0 m²/s² 0 0 1.81 0
 06:19     21:01    Daglengte: 14:42 Dinsdag 03 Aug
00:00 175 J/kg -0.8 K 0 % 0 % 0 % 0 m²/s² 0 0 1.81 0
01:00 105 J/kg -0.5 K 0 % 0 % 0 % 0 m²/s² 0 0 1.9 0
02:00 42 J/kg -0.4 K 0 % 0 % 0 % 0 m²/s² 0 0 2 0
03:00 10 J/kg -0.4 K 0 % 0 % 0 % 0 m²/s² 0 0 1.73 1
04:00 0 J/kg 0.2 K 0 % 0 % 0 % 0 m²/s² 0 0 1.82 3
05:00 0 J/kg 0.6 K 0 % 0 % 0 % 0 m²/s² 0 0 2.22 3
06:00 0 J/kg -0.2 K 0 % 0 % 0 % 0 m²/s² 0 0 1.42 3
07:00 0 J/kg -0.7 K 0 % 0 % 0 % 0 m²/s² 0 0 1.43 3
08:00 0 J/kg -1.0 K 0 % 0 % 0 % 0 m²/s² 0 0 1.19 3
09:00 26 J/kg -0.8 K 0 % 0 % 0 % 0 m²/s² 0 0 2.05 3
10:00 208 J/kg -1.3 K 0 % 0 % 0 % 0 m²/s² 0 0 1.16 3
11:00 334 J/kg -1.0 K 0 % 0 % 0 % 0 m²/s² 0 0 -0.13 3
12:00 171 J/kg -0.3 K 0 % 0 % 0 % 0 m²/s² 0 0 0.36 3
13:00 88 J/kg 0.5 K 0 % 0 % 0 % 0 m²/s² 0 0 0.92 3
14:00 185 J/kg -0.2 K 0 % 0 % 0 % 0 m²/s² 0 0 0.64 3
15:00 325 J/kg -0.8 K 0 % 0 % 0 % 0 m²/s² 0 0 0.43 80
16:00 329 J/kg -0.7 K 0 % 0 % 0 % 0 m²/s² 0 0 1.43 80
17:00 373 J/kg -0.9 K 0 % 0 % 0 % 0 m²/s² 0 0 1.44 80
18:00 352 J/kg -1.0 K 0 % 0 % 0 % 0 m²/s² 0 0 1.13 1
19:00 326 J/kg -0.7 K 0 % 0 % 0 % 0 m²/s² 0 0 1.31 1
20:00 323 J/kg -0.4 K 0 % 0 % 0 % 0 m²/s² 0 0 1.49 1
21:00 270 J/kg 0.2 K 0 % 0 % 0 % 0 m²/s² 0 0 2.03 3
22:00 189 J/kg 1.2 K 0 % 0 % 0 % 0 m²/s² 0 0 2.73 3
23:00 53 J/kg 2.2 K 0 % 0 % 0 % 0 m²/s² 0 0 3.67 3
 06:20     21:00    Daglengte: 14:40 Woensdag 04 Aug
00:00 12 J/kg 2.0 K 0 % 0 % 0 % 0 m²/s² 0 0 3.05 3
Temp Baro Wind Neerslag
  EWN Forecast EWN WRFDA DWD ICON FMI HIRLAM MET Norway GFS
 06:17     21:04    Daglengte: 14:47 Vandaag
02:00 16.5° 1011.5 hPa 1.3 m/s 0.7 mm 15.5° 1010.2 hPa 2.2 m/s 2.6 mm 16.4° 1011.3 hPa 0.3 m/s 0.1 mm 17.2° 1011.6 hPa 3.9 m/s 0.0 mm 14.8° 1011.6 hPa 0.7 m/s
05:00 16.2° 1011.3 hPa 2.0 m/s 4.5 mm 15.0° 1008.9 hPa 2.1 m/s 7.6 mm 15.3° 1011.2 hPa 1.3 m/s 3.2 mm 16.7° 1011.5 hPa 3.0 m/s 0.0 mm 14.6° 1011.5 hPa 0.9 m/s
08:00 16.3° 1012.3 hPa 2.2 m/s 8.0 mm 15.6° 1009.2 hPa 1.7 m/s 12.2 mm 14.5° 1012.8 hPa 0.6 m/s 9.3 mm 16.8° 1012.3 hPa 2.5 m/s 0.0 mm 14.3° 1011.4 hPa 2.1 m/s
11:00 16.5° 1013.1 hPa 1.5 m/s 5.6 mm 17.2° 1010.9 hPa 2.0 m/s 15.6 mm 15.1° 1013.8 hPa 0.3 m/s 2.0 mm 16.9° 1013.2 hPa 1.6 m/s 0.0 mm 14.3° 1012.5 hPa 1.9 m/s
14:00 17.3° 1012.8 hPa 1.2 m/s 4.3 mm 16.8° 1011.0 hPa 3.7 m/s 17.4 mm 16.1° 1013.9 hPa 0.4 m/s 1.1 mm 18.6° 1012.1 hPa 0.9 m/s 0.0 mm 15.1° 1013.7 hPa 0.4 m/s
17:00 18.2° 1012.9 hPa 1.6 m/s 0.0 mm 18.0° 1011.5 hPa 3.8 m/s 21.1 mm 17.3° 1013.3 hPa 1.6 m/s 0.7 mm 19.9° 1011.4 hPa 1.8 m/s 0.0 mm 16.0° 1013.8 hPa 0.2 m/s
20:00 18.3° 1013.6 hPa 1.2 m/s 0.0 mm 16.6° 1012.7 hPa 2.5 m/s 28.6 mm 15.9° 1014.0 hPa 0.6 m/s 1.4 mm 18.8° 1012.4 hPa 3.8 m/s 0.0 mm 16.2° 1014.0 hPa 0.4 m/s
23:00 16.6° 1014.8 hPa 1.6 m/s 0.0 mm 14.9° 1013.8 hPa 0.2 m/s 55.4 mm 14.5° 1015.2 hPa 0.7 m/s 0.2 mm 16.8° 1014.5 hPa 1.8 m/s 0.0 mm 13.8° 1015.5 hPa 0.9 m/s
 06:18     21:03    Daglengte: 14:45 Morgen
02:00 15.7° 1015.0 hPa 1.7 m/s 4.0 mm 14.7° 1014.1 hPa 2.3 m/s 55.7 mm 13.2° 1015.6 hPa 0.4 m/s 0.8 mm 15.9° 1015.0 hPa 1.8 m/s 0.0 mm 12.9° 1015.8 hPa 0.9 m/s
05:00 15.1° 1015.3 hPa 1.0 m/s 0.0 mm 14.1° 1014.2 hPa 3.5 m/s 55.7 mm 12.6° 1015.8 hPa 0.0 m/s 0.2 mm 15.3° 1015.4 hPa 0.5 m/s 0.0 mm 12.3° 1016.1 hPa 0.8 m/s
08:00 15.8° 1016.0 hPa 1.2 m/s 0.0 mm 16.2° 1015.5 hPa 4.3 m/s 55.7 mm 13.1° 1017.0 hPa 0.3 m/s 0.0 mm 15.9° 1015.6 hPa 1.0 m/s 0.0 mm 13.7° 1017.1 hPa 0.7 m/s
11:00 17.5° 1016.4 hPa 2.3 m/s 0.0 mm 18.3° 1015.7 hPa 3.6 m/s 55.7 mm 17.1° 1017.0 hPa 1.8 m/s 0.0 mm 17.5° 1015.9 hPa 2.2 m/s 0.0 mm 16.6° 1016.9 hPa 1.1 m/s
14:00 19.4° 1015.8 hPa 2.4 m/s 0.0 mm 20.3° 1015.4 hPa 2.7 m/s 55.8 mm 19.6° 1015.7 hPa 2.6 m/s 0.0 mm 19.8° 1016.0 hPa 3.1 m/s 0.0 mm 18.8° 1016.1 hPa 1.3 m/s
17:00 19.6° 1015.6 hPa 1.9 m/s 0.0 mm 21.6° 1014.4 hPa 1.7 m/s 55.9 mm 19.0° 1015.6 hPa 1.9 m/s 0.3 mm 19.4° 1016.4 hPa 3.1 m/s 0.0 mm 20.3° 1015.6 hPa 1.1 m/s
20:00 20.1° 1015.2 hPa 1.4 m/s 0.0 mm 21.6° 1014.1 hPa 1.1 m/s 55.9 mm 19.5° 1014.8 hPa 1.5 m/s 0.0 mm 19.8° 1017.4 hPa 0.9 m/s 0.0 mm 19.2° 1015.7 hPa 0.4 m/s
23:00 18.0° 1015.9 hPa 1.9 m/s 0.0 mm 18.2° 1015.3 hPa 2.0 m/s 55.9 mm 15.6° 1016.1 hPa 1.9 m/s 0.0 mm 15.4° 1017.5 hPa 0.5 m/s
 06:19     21:01    Daglengte: 14:42 Dinsdag 03 Aug
02:00 16.8° 1015.4 hPa 2.1 m/s 6.3 mm 17.2° 1015.1 hPa 2.7 m/s 55.9 mm 13.7° 1016.1 hPa 2.1 m/s 0.0 mm 14.1° 1017.0 hPa 0.5 m/s
05:00 16.5° 1014.8 hPa 2.0 m/s 6.3 mm 17.1° 1013.9 hPa 3.3 m/s 55.9 mm 13.1° 1015.5 hPa 1.6 m/s 0.0 mm 13.4° 1016.1 hPa 0.6 m/s
08:00 17.2° 1015.1 hPa 2.4 m/s 0.0 mm 18.7° 1014.0 hPa 5.2 m/s 55.9 mm 14.0° 1015.4 hPa 1.8 m/s 0.0 mm 15.0° 1016.2 hPa 0.9 m/s
11:00 18.6° 1015.0 hPa 2.6 m/s 0.0 mm 20.1° 1014.3 hPa 10.7 m/s 55.9 mm 18.2° 1015.1 hPa 0.6 m/s 0.0 mm 18.7° 1015.4 hPa 4.1 m/s
14:00 19.5° 1013.7 hPa 4.7 m/s 6.4 mm 18.9° 1014.2 hPa 8.3 m/s 56.8 mm 19.7° 1013.6 hPa 3.8 m/s 0.1 mm 14.7° 1017.4 hPa 4.6 m/s
17:00 19.1° 1013.9 hPa 4.8 m/s 20.0 mm 20.6° 1013.3 hPa 6.7 m/s 56.9 mm 18.7° 1014.0 hPa 4.3 m/s 1.5 mm 18.8° 1015.8 hPa 4.7 m/s
20:00 19.1° 1013.7 hPa 3.5 m/s 0.0 mm 20.4° 1012.9 hPa 4.2 m/s 56.9 mm 18.8° 1013.9 hPa 3.3 m/s 0.1 mm 17.0° 1015.2 hPa 3.1 m/s
23:00 17.3° 1014.6 hPa 0.8 m/s 0.0 mm 17.9° 1013.1 hPa 2.8 m/s 56.9 mm 17.1° 1014.9 hPa 0.3 m/s 0.0 mm 15.4° 1015.1 hPa 1.3 m/s
 06:20     21:00    Daglengte: 14:40 Woensdag 04 Aug
02:00 16.4° 1014.3 hPa 1.0 m/s 19.1 mm 17.5° 1012.8 hPa 3.2 m/s 57.0 mm 16.1° 1014.7 hPa 0.5 m/s 0.2 mm 15.4° 1014.4 hPa 1.4 m/s
05:00 15.3° 1013.1 hPa 0.8 m/s 39.8 mm 15.3° 1013.1 hPa 0.8 m/s 39.8 mm
08:00 15.8° 1013.7 hPa 3.1 m/s 46.3 mm 15.8° 1013.7 hPa 3.1 m/s 46.3 mm
11:00 16.1° 1015.2 hPa 4.9 m/s 51.5 mm 16.1° 1015.2 hPa 4.9 m/s 51.5 mm
14:00 17.0° 1015.9 hPa 2.4 m/s 52.9 mm 17.0° 1015.9 hPa 2.4 m/s 52.9 mm
17:00 16.1° 1016.9 hPa 3.0 m/s 54.0 mm 16.1° 1016.9 hPa 3.0 m/s 54.0 mm
20:00 15.9° 1017.7 hPa 1.5 m/s 54.6 mm 15.9° 1017.7 hPa 1.5 m/s 54.6 mm
23:00 13.1° 1019.0 hPa 1.8 m/s 55.5 mm 13.1° 1019.0 hPa 1.8 m/s 55.5 mm
 06:21     20:58    Daglengte: 14:37 Donderdag 05 Aug
02:00 12.3° 1018.6 hPa 0.8 m/s 55.6 mm 12.3° 1018.6 hPa 0.8 m/s 55.6 mm
05:00 11.6° 1017.7 hPa 0.9 m/s 55.6 mm 11.6° 1017.7 hPa 0.9 m/s 55.6 mm
08:00 12.9° 1016.8 hPa 0.9 m/s 55.6 mm 12.9° 1016.8 hPa 0.9 m/s 55.6 mm
11:00 15.4° 1015.1 hPa 0.5 m/s 55.6 mm 15.4° 1015.1 hPa 0.5 m/s 55.6 mm
14:00 17.7° 1013.8 hPa 1.1 m/s 55.6 mm 17.7° 1013.8 hPa 1.1 m/s 55.6 mm
17:00 18.0° 1012.7 hPa 4.8 m/s 55.8 mm 18.0° 1012.7 hPa 4.8 m/s 55.8 mm
20:00 16.6° 1012.2 hPa 4.4 m/s 56.6 mm 16.6° 1012.2 hPa 4.4 m/s 56.6 mm
23:00 15.0° 1012.5 hPa 4.2 m/s 56.9 mm 15.0° 1012.5 hPa 4.2 m/s 56.9 mm
 06:23     20:57    Daglengte: 14:34 Vrijdag 06 Aug
02:00 14.8° 1012.0 hPa 3.6 m/s 57.5 mm 14.8° 1012.0 hPa 3.6 m/s 57.5 mm
05:00 14.3° 1012.1 hPa 5.3 m/s 58.5 mm 14.3° 1012.1 hPa 5.3 m/s 58.5 mm
08:00 14.8° 1012.8 hPa 5.1 m/s 58.9 mm 14.8° 1012.8 hPa 5.1 m/s 58.9 mm
11:00 18.0° 1013.1 hPa 7.3 m/s 59.2 mm 18.0° 1013.1 hPa 7.3 m/s 59.2 mm
14:00 20.1° 1012.8 hPa 7.6 m/s 59.3 mm 20.1° 1012.8 hPa 7.6 m/s 59.3 mm
17:00 20.7° 1012.6 hPa 7.2 m/s 59.3 mm 20.7° 1012.6 hPa 7.2 m/s 59.3 mm
20:00 18.2° 1013.6 hPa 4.7 m/s 59.3 mm 18.2° 1013.6 hPa 4.7 m/s 59.3 mm
23:00 14.5° 1015.3 hPa 1.8 m/s 59.3 mm 14.5° 1015.3 hPa 1.8 m/s 59.3 mm
 06:24     20:56    Daglengte: 14:32 Zaterdag 07 Aug
02:00 13.2° 1015.1 hPa 0.4 m/s 59.3 mm 13.2° 1015.1 hPa 0.4 m/s 59.3 mm
05:00 12.4° 1014.5 hPa 0.7 m/s 59.3 mm 12.4° 1014.5 hPa 0.7 m/s 59.3 mm
08:00 13.9° 1013.9 hPa 0.9 m/s 59.3 mm 13.9° 1013.9 hPa 0.9 m/s 59.3 mm
11:00 17.9° 1012.8 hPa 0.4 m/s 59.3 mm 17.9° 1012.8 hPa 0.4 m/s 59.3 mm
14:00 20.0° 1011.9 hPa 1.1 m/s 59.3 mm 20.0° 1011.9 hPa 1.1 m/s 59.3 mm
17:00 21.6° 1011.1 hPa 1.0 m/s 59.3 mm 21.6° 1011.1 hPa 1.0 m/s 59.3 mm
20:00 21.3° 1010.6 hPa 0.9 m/s 59.3 mm 21.3° 1010.6 hPa 0.9 m/s 59.3 mm
23:00 18.5° 1011.9 hPa 1.0 m/s 59.3 mm 18.5° 1011.9 hPa 1.0 m/s 59.3 mm
 06:25     20:54    Daglengte: 14:29 Zondag 08 Aug
02:00 17.4° 1012.5 hPa 0.5 m/s 59.3 mm 17.4° 1012.5 hPa 0.5 m/s 59.3 mm
08:00 18.1° 1014.8 hPa 2.8 m/s 59.4 mm 18.1° 1014.8 hPa 2.8 m/s 59.4 mm
14:00 24.3° 1015.8 hPa 4.1 m/s 59.8 mm 24.3° 1015.8 hPa 4.1 m/s 59.8 mm
20:00 17.4° 1020.4 hPa 1.8 m/s 63.0 mm 17.4° 1020.4 hPa 1.8 m/s 63.0 mm
 06:26     20:52    Daglengte: 14:26 Maandag 09 Aug
02:00 16.6° 1023.1 hPa 1.2 m/s 64.8 mm 16.6° 1023.1 hPa 1.2 m/s 64.8 mm
08:00 15.1° 1024.5 hPa 1.9 m/s 64.9 mm 15.1° 1024.5 hPa 1.9 m/s 64.9 mm
14:00 20.5° 1023.9 hPa 0.9 m/s 64.9 mm 20.5° 1023.9 hPa 0.9 m/s 64.9 mm
20:00 20.2° 1023.8 hPa 2.5 m/s 64.9 mm 20.2° 1023.8 hPa 2.5 m/s 64.9 mm
 06:28     20:51    Daglengte: 14:23 Dinsdag 10 Aug
02:00 14.4° 1026.1 hPa 2.8 m/s 64.9 mm 14.4° 1026.1 hPa 2.8 m/s 64.9 mm
08:00 14.3° 1025.5 hPa 2.5 m/s 64.9 mm 14.3° 1025.5 hPa 2.5 m/s 64.9 mm
14:00 21.7° 1023.3 hPa 2.7 m/s 64.9 mm 21.7° 1023.3 hPa 2.7 m/s 64.9 mm
20:00 19.8° 1020.7 hPa 1.4 m/s 0.5 mm
 06:29     20:49    Daglengte: 14:20 Woensdag 11 Aug
02:00 13.7° 1021.9 hPa 0.8 m/s 0.5 mm
08:00 14.7° 1021.2 hPa 1.0 m/s 1.8 mm
14:00 23.4° 1019.5 hPa 1.8 m/s 0.7 mm
20:00 19.2° 1019.6 hPa 1.4 m/s 1.2 mm
 06:30     20:48    Daglengte: 14:18 Donderdag 12 Aug
02:00 14.0° 1020.8 hPa 1.0 m/s 0.8 mm
08:00 14.6° 1020.6 hPa 0.9 m/s 0.7 mm
14:00 23.6° 1019.0 hPa 1.6 m/s 0.8 mm
20:00 19.6° 1019.1 hPa 1.1 m/s 1.9 mm
 06:31     20:46    Daglengte: 14:15 Vrijdag 13 Aug
02:00 14.1° 1020.7 hPa 0.8 m/s 1.0 mm
08:00 14.8° 1020.9 hPa 0.9 m/s 0.7 mm
14:00 23.9° 1019.5 hPa 1.8 m/s 0.4 mm
20:00 20.0° 1019.6 hPa 1.3 m/s 0.6 mm
 06:33     20:44    Daglengte: 14:11 Zaterdag 14 Aug
02:00 14.5° 1021.1 hPa 0.8 m/s 0.2 mm
08:00 15.0° 1020.7 hPa 1.0 m/s 0.3 mm
14:00 24.7° 1018.6 hPa 1.7 m/s 0.3 mm
20:00 20.3° 1018.5 hPa 1.5 m/s 0.6 mm
 06:34     20:43    Daglengte: 14:09 Zondag 15 Aug
02:00 14.7° 1019.8 hPa 0.9 m/s 0.6 mm
08:00 15.3° 1019.3 hPa 0.8 m/s 0.3 mm
14:00 24.4° 1017.7 hPa 1.9 m/s 0.4 mm
20:00 20.0° 1017.9 hPa 1.3 m/s 0.4 mm
FMI Hirlam - 7.5 km EWN WRFDA - 12 km DWD ICON - 7 km GFS - 25 km Basiskaart






























































Updatetijd (Europe/Amsterdam) Resolutie Lengte Stap
FMI Hirlam 19:00, 01:00, 07:00, 13:00 7.5 km 49h 1h
EWN WRFDA 22:15, 04:15, 10:15, 16:15 12 km 73h 1h
DWD ICON 23:45, 05:45, 11:45, 17:45 7 km 75h 1h
GFS 20:15, 02:15, 08:15, 14:15 25 km 237h 3h
30+ mm
25-30 mm
20-25 mm
15-20 mm
10-15 mm
6-10 mm
4-6 mm
2-4 mm
1-2 mm
0.5-1 mm
0.2-0.5 mm
0.1-0.2 mm
30+ mm
25-30 mm
20-25 mm
15-20 mm
10-15 mm
6-10 mm
4-6 mm
2-4 mm
1-2 mm
0.5-1 mm
0.2-0.5 mm
0.1-0.2 mm
Sneeuwval
Natte sneeuw
Hagel
Vorst
30+ mm
25-30 mm
20-25 mm
15-20 mm
10-15 mm
6-10 mm
4-6 mm
2-4 mm
1-2 mm
0.5-1 mm
0.2-0.5 mm
0.1-0.2 mm
Sneeuwval
Natte sneeuw
Hagel
Vorst
Onweer
50 mm
40 mm
30 mm
26 mm
22 mm
18 mm
14 mm
10 mm
9 mm
8 mm
7 mm
6 mm
5 mm
4.5 mm
4 mm
3.5 mm
3 mm
2.5 mm
2 mm
1.5 mm
1 mm
0.8 mm
0.6 mm
0.4 mm
0.2 mm
0.05 mm
35°
30°
25°
20°
15°
10°
-5°
-10°
-15°
-20°
-25°
-30°
-35°